EW5205 Weather Reports


Display with metric or nautical units.
time (UTC)temp
F
wind
direction
speed
MPH
gust
MPH
rain 1hr
in
rain 24hr
in
rain mn
in
humidity
%
barometer
mb
20260903074548 74 299 0.0 0.0 0.00 0.00 0.00 39 1021.0
20260903073048 73 245 0.0 0.0 0.00 0.00 0.00 42 1020.8
20260903071544 73 60 0.0 0.0 0.00 0.00 0.00 41 1020.8
20260903070045 72 35 0.0 0.0 0.00 0.00 0.00 43 1020.8
20260903064538 73 318 0.0 0.0 0.00 0.00 0.00 39 1020.9
20260903063035 74 104 0.0 0.0 0.00 0.00 0.00 39 1020.8
20260903061548 75 88 0.0 0.0 0.00 0.00 0.00 37 1020.7
20260903060031 77 93 0.0 0.0 0.00 0.00 0.00 36 1020.8
20260903054522 78 128 0.0 0.0 0.00 0.00 0.00 35 1020.9
20260903053017 78 87 0.0 0.0 0.00 0.00 0.00 35 1020.9
20260903051512 78 103 0.0 0.0 0.00 0.00 0.00 34 1020.9
20260903050010 78 121 0.0 0.0 0.00 0.00 0.00 33 1020.9
20260903044504 78 124 0.0 0.0 0.00 0.00 0.00 33 1021.1
20260903043103 79 88 0.0 0.0 0.00 0.00 0.00 33 1021.1
20260903041558 80 104 0.0 0.0 0.00 0.00 0.00 31 1021.0
20260903040056 79 89 0.0 0.0 0.00 0.00 0.00 32 1021.0
20260903034546 79 95 0.0 0.0 0.00 0.00 0.00 33 1020.9
20260903033049 79 95 0.0 0.0 0.00 0.00 0.00 32 1020.9
20260903031542 80 121 0.0 0.0 0.00 0.00 0.00 31 1020.8
20260903024528 80 149 0.0 0.0 0.00 0.00 0.00 31 1020.4
20260903023024 81 156 0.0 0.0 0.00 0.00 0.00 30 1020.2
20260903021520 82 189 0.0 0.0 0.00 0.00 0.00 29 1020.0
20260903020015 83 204 0.0 0.0 0.00 0.00 0.00 28 1019.9
20260903014510 84 228 0.0 0.0 0.00 0.00 0.00 27 1019.8
20260903013006 85 228 0.0 1.0 0.00 0.00 0.00 26 1019.6
20260903011507 87 230 0.0 0.0 0.00 0.00 0.00 25 1019.7
20260903010116 88 184 0.0 1.0 0.00 0.00 0.00 25 1019.6
20260903004551 89 239 2.0 8.0 0.00 0.00 0.00 24 1019.4
20260903003047 89 283 4.0 9.0 0.00 0.00 0.00 25 1019.5
20260903001543 89 238 0.0 1.0 0.00 0.00 0.00 25 1019.5
20260903000039 91 256 0.0 30.0 0.00 0.00 0.00 23 1019.6
20260902234532 92 187 7.0 15.0 0.00 0.00 0.00 22 1019.6
20260902233028 91 215 9.0 13.0 0.00 0.00 0.00 23 1019.7
20260902231530 89 226 0.0 8.0 0.00 0.00 0.00 23 1019.8
20260902230019 90 250 0.0 3.0 0.00 0.00 0.00 23 1019.8
20260902224529 92 251 7.0 15.0 0.00 0.00 0.00 22 1019.9
20260902223002 92 240 3.0 14.0 0.00 0.00 0.00 20 1020.1
20260902221604 92 291 4.0 14.0 0.00 0.00 0.00 20 1020.4
20260902214603 92 253 3.0 11.0 0.00 0.00 0.00 22 1020.5
20260902213022 92 235 2.0 12.0 0.00 0.00 0.00 22 1020.7
20260902211610 91 230 2.0 10.0 0.00 0.00 0.00 23 1020.9
20260902204542 91 232 7.0 13.0 0.00 0.00 0.00 22 1021.3
20260902203129 90 242 3.0 15.0 0.00 0.00 0.00 23 1021.5
20260902201556 90 266 0.0 15.0 0.00 0.00 0.00 24 1021.8
20260902200045 90 228 5.0 13.0 0.00 0.00 0.00 24 1022.0
20260902194535 89 228 0.0 11.0 0.00 0.00 0.00 26 1022.1
20260902193041 89 242 7.0 13.0 0.00 0.00 0.00 26 1022.4
20260902191527 89 264 5.0 14.0 0.00 0.00 0.00 25 1022.7
20260902190043 89 230 0.0 10.0 0.00 0.00 0.00 26 1022.8
20260902184544 88 202 3.0 13.0 0.00 0.00 0.00 27 1023.2
20260902183039 88 240 7.0 14.0 0.00 0.00 0.00 27 1023.4
20260902181529 88 239 7.0 16.0 0.00 0.00 0.00 28 1023.6
20260902180025 86 250 1.0 12.0 0.00 0.00 0.00 29 1023.8
20260902174524 86 228 4.0 12.0 0.00 0.00 0.00 30 1023.9
20260902173020 85 262 0.0 10.0 0.00 0.00 0.00 31 1024.0
20260902171511 85 218 3.0 12.0 0.00 0.00 0.00 31 1024.1
20260902170006 84 260 3.0 10.0 0.00 0.00 0.00 33 1024.2
20260902164502 83 281 0.0 11.0 0.00 0.00 0.00 36 1024.2
20260902163102 82 247 2.0 9.0 0.00 0.00 0.00 37 1024.2
20260902161553 82 274 1.0 7.0 0.00 0.00 0.00 38 1024.2
20260902160050 81 271 0.0 8.0 0.00 0.00 0.00 39 1024.1
20260902154544 79 271 0.0 7.0 0.00 0.00 0.00 40 1024.1
20260902153050 78 228 0.0 0.0 0.00 0.00 0.00 42 1024.0
20260902151535 77 271 0.0 0.0 0.00 0.00 0.00 44 1024.1
20260902150031 76 353 0.0 0.0 0.00 0.00 0.00 45 1024.1
20260902144526 74 356 0.0 0.0 0.00 0.00 0.00 49 1024.0
20260902143022 72 48 0.0 0.0 0.00 0.00 0.00 52 1023.9
20260902141517 71 63 0.0 0.0 0.00 0.00 0.00 56 1024.0
20260902140014 69 56 0.0 0.0 0.00 0.00 0.00 59 1024.0
20260902134509 66 55 0.0 0.0 0.00 0.00 0.00 63 1023.9
20260902133004 64 20 0.0 0.0 0.00 0.00 0.00 64 1023.8
20260902131701 0 0.0 0.0 0.00 0.00 0.00 1023.6
20260902130055 0 0.0 0.0 0.00 0.00 0.00 1023.4
20260902124552 0 0.0 0.0 0.00 0.00 0.00 1023.4
20260902123053 0 0.0 0.0 0.00 0.00 0.00 1023.2
20260902121545 0 0.0 0.0 0.00 0.00 0.00 1023.1
20260902120042 0 0.0 0.0 0.00 0.00 0.00 1023.0
20260902114543 0 0.0 0.0 0.00 0.00 0.00 1023.0
20260902113037 -90 113 0.0 0.0 0.00 0.00 0.00 60 1022.9
20260902111531 64 113 0.0 0.0 0.00 0.00 0.00 61 1022.9
20260902110040 64 112 0.0 0.0 0.00 0.00 0.00 61 1022.9
20260902104530 65 121 0.0 0.0 0.00 0.00 0.00 59 1022.9
20260902103029 64 111 0.0 0.0 0.00 0.00 0.00 60 1022.9
20260902101532 64 125 0.0 0.0 0.00 0.00 0.00 60 1022.9
20260902100024 64 125 0.0 0.0 0.00 0.00 0.00 60 1022.9
20260902094525 65 125 0.0 0.0 0.00 0.00 0.00 60 1022.9
20260902093030 64 125 0.0 0.0 0.00 0.00 0.00 59 1022.9
20260902091517 65 125 0.0 0.0 0.00 0.00 0.00 57 1022.9
20260902090015 66 126 0.0 0.0 0.00 0.00 0.00 56 1023.0
20260902084513 67 126 0.0 0.0 0.00 0.00 0.00 55 1022.9
20260902083006 67 125 0.0 0.0 0.00 0.00 0.00 54 1022.9
20260902081506 67 126 0.0 0.0 0.00 0.00 0.00 55 1022.8
20260902080002 68 101 0.0 0.0 0.00 0.00 0.00 54 1022.8